1276905625959,76.4098
1276905685959,76.4385
1276905745959,76.3345
1276905805959,76.3629
1276905865959,76.5078
1276905925959,76.4069
1276905985959,76.3735
1276906045959,76.2521
1276906105959,76.3547
1276906165959,76.3779
1276906225959,76.3157
1276906285959,76.3634
1276906345959,76.6174
1276906405959,76.4373
1276906465959,76.3768
1276906525959,76.5790
1276906585959,76.4699
1276906645959,76.3818
1276906705959,76.4295
1276906765959,76.4181
1276906825959,76.6148
1276906885959,76.5103
1276906945959,76.4726
1276907005959,76.5463
1276907065959,76.5178
1276907125959,76.6010
1276907185959,76.5139
1276907245959,76.4077
1276907305959,76.4637
1276907365959,76.6968
1276907425959,76.4879
1276907485959,76.5746
1276907545959,76.5693
1276907605959,76.6112
1276907665959,76.6155
1276907725959,76.4357
1276907785959,76.5336
1276907845959,76.5172
1276907905959,76.5115
1276907965959,76.5438
1276908025959,76.6192
1276908085959,76.6939
1276908145959,76.6603
1276908205959,76.6794
1276908265959,76.6085
1276908325959,76.7550
1276908385959,76.5434
1276908445959,76.8511
1276908505959,76.7272
1276908565959,76.5564
1276908625959,76.6732
1276908685959,76.5311
1276908745959,76.5305
1276908805959,76.8660
1276908865959,76.7875
1276908925959,76.8544
1276908985959,76.6038
1276909045959,76.7217
1276909105959,76.8203
1276909165959,76.7321
1276909225968,76.7550
1276909285968,76.7249
1276909345968,76.8550
1276909405968,76.8135
1276909465968,76.8559
1276909525968,76.8744
1276909585968,76.7834
1276909645968,76.7045
1276909705968,76.6999
1276909765968,76.8846
1276909825968,76.8112
1276909885968,76.8394
1276909945968,76.8546
1276910005968,76.9776
1276910065968,76.9951
1276910125968,76.9932
1276910185968,76.8937
1276910245968,76.9394
1276910305968,77.0471
1276910365968,76.8991
1276910425968,76.9668
1276910485968,76.9238
1276910545968,77.1131
1276910605968,76.8913
1276910665968,76.9743
1276910725968,76.8847
1276910785968,76.8879
1276910845968,76.9483
1276910905968,77.0536
1276910965968,76.9413
1276911025968,77.0851
1276911085968,76.9766
1276911145968,77.1656
1276911205968,77.1998
1276911265968,77.2811
1276911325968,77.0533
1276911385968,77.1058
1276911445968,76.9159
1276911505968,77.0098
1276911565968,76.9672
1276911625968,77.0251
1276911685968,77.0365
1276911745968,76.9300
1276911805968,76.8611
1276911865968,77.1159
1276911925968,76.9042
1276911985968,76.9912
1276912045968,76.9551
1276912105968,77.1505
1276912165968,76.9361
1276912225968,76.8171
1276912285968,77.0723
1276912345968,76.9643
1276912405968,77.0141
1276912465968,76.6576
1276912525968,76.7571
1276912585968,76.8419
1276912645968,76.7363
1276912705968,76.8927
1276912765968,76.9771
1276912825977,76.9993
1276912885977,76.8944
1276912945977,76.8776
1276913005977,76.9002
1276913065977,76.9180
1276913125977,76.7286
1276913185977,76.8572
1276913245977,76.8785
1276913305977,76.8149
1276913365977,76.7024
1276913425977,76.9355
1276913485977,76.7056
1276913545977,76.8453
1276913605977,76.7618
1276913665977,76.7843
1276913725977,76.6604
1276913785977,76.6550
1276913845977,76.6154
1276913905977,76.7406
1276913965977,76.8470
1276914025977,76.7152
1276914085977,76.7829
1276914145977,76.7900
1276914205977,76.7471
1276914265977,76.8651
1276914325977,76.7691
1276914385977,76.7214
1276914445977,76.9237
1276914505977,76.5717
1276914565977,76.8203
1276914625977,76.9123
1276914685977,76.6733
1276914745977,76.7673
1276914805977,76.6392
1276914865977,76.7402
1276914925977,76.8463
1276914985977,76.7063
1276915045977,76.7369
1276915105977,76.6021
1276915165977,76.6674
1276915225977,76.6970
1276915285977,76.6613
1276915345977,76.7471
1276915405977,76.5821
1276915465977,76.7021
1276915525977,76.7224
1276915585977,76.7419
1276915645977,76.6913
1276915705977,76.6093
1276915765977,76.5947
1276915825977,76.7051
1276915885977,76.5606
1276915945977,76.5608
1276916005977,76.6194
1276916065977,76.6731
1276916125977,76.6312
1276916185977,76.8334
1276916245977,76.4900
1276916305977,76.6851
1276916365977,76.5606
1276916425986,76.7247
1276916485986,76.5130
1276916545986,76.5874
1276916605986,76.5875
1276916665986,76.5420
1276916725986,76.5030
1276916785986,76.4872
1276916845986,76.3053
1276916905986,76.4695
1276916965986,76.6097
1276917025986,76.4901
1276917085986,76.4163
1276917145986,76.4475
1276917205986,76.7232
1276917265986,76.5235
1276917325986,76.6720
1276917385986,76.4701
1276917445986,76.4838
1276917505986,76.5016
1276917565986,76.6563
1276917625986,76.4916
1276917685986,76.5595
1276917745986,76.3903
1276917805986,76.4380
1276917865986,76.4770
1276917925986,76.3961
1276917985986,76.5396
1276918045986,76.5650
1276918105986,76.4615
1276918165986,76.4772
1276918225986,76.4461
1276918285986,76.5591
1276918345986,76.5097
1276918405986,76.5554
1276918465986,76.4787
1276918525986,76.6224
1276918585986,76.4214
1276918645986,76.4550
1276918705986,76.3967
1276918765986,76.4762
1276918825986,76.6609
1276918885986,76.5053
1276918945986,76.5152
1276919005986,76.5056
1276919065986,76.6172
1276919125986,76.5131
1276919185986,76.5978
1276919245986,76.3767
1276919305986,76.3237
1276919365986,76.5149
1276919425986,76.4094
1276919485986,76.6362
1276919545986,76.5446
1276919605986,76.4932
1276919665986,76.6546
1276919725986,76.4848
1276919785986,76.3772
1276919845986,76.6567
1276919905986,76.5146
1276919965986,76.5532
1276920025995,76.4918
1276920085995,76.5819
1276920145995,76.6858
1276920205995,76.5230
1276920265995,76.5135
1276920325995,76.7947
1276920385995,76.4537
1276920445995,76.6694
1276920505995,76.5312
1276920565995,76.3435
1276920625995,76.3649
1276920685995,76.6083
1276920745995,76.5653
1276920805995,76.4940
1276920865995,76.4990
1276920925995,76.6408
1276920985995,76.5472
1276921045995,76.5090
1276921105995,76.5819
1276921165995,76.3909
1276921225995,76.6180
1276921285995,76.4950
1276921345995,76.6633
1276921405995,76.4327
1276921465995,76.5574
1276921525995,76.4027
1276921585995,76.3827
1276921645995,76.3950
1276921705995,76.5058
1276921765995,76.5745
1276921825995,76.4030
1276921885995,76.5616
1276921945995,76.3695
1276922005995,76.4994
1276922065995,76.5558
1276922125995,76.5347
1276922185995,76.4885
1276922245995,76.5307
1276922305995,76.5271
1276922365995,76.4768
1276922425995,76.5472
1276922485995,76.6676
1276922545995,76.4395
1276922605995,76.6741
1276922665995,76.6597
1276922725995,76.6336
1276922785995,76.5649
1276922845995,76.4263
1276922905995,76.5429
1276922965995,76.4952
1276923025995,76.4936
1276923085995,76.4735
1276923145995,76.5740
1276923205995,76.5627
1276923265995,76.5512
1276923325995,76.5727
1276923385995,76.4484
1276923445995,76.5433
1276923505995,76.5697
1276923565995,76.4583
1276923626003,76.5689
1276923686003,76.5319
1276923746003,76.5349
1276923806003,76.4825
1276923866003,76.6262
1276923926003,76.5564
1276923986003,76.5220
1276924046003,76.6499
1276924106003,76.6238
1276924166003,76.6244
1276924226003,76.4877
1276924286003,76.4990
1276924346003,76.6233
1276924406003,76.5857
1276924466003,76.5671
1276924526003,76.6272
1276924586003,76.5659
1276924646003,76.6146
1276924706003,76.6439
1276924766003,76.6215
1276924826003,76.5743
1276924886003,76.6274
1276924946003,76.5977
1276925006003,76.7191
1276925066003,76.6812
1276925126003,76.6185
1276925186003,76.6723
1276925246003,76.8278
1276925306003,76.6602
1276925366003,76.6981
1276925426003,76.5021
1276925486003,76.8009
1276925546003,76.6830
1276925606003,76.6274
1276925666003,76.7360
1276925726003,76.7410
1276925786003,76.6026
1276925846003,76.8938
1276925906003,76.7594
1276925966003,76.6701
1276926026003,76.6838
1276926086003,76.6281
1276926146003,76.7735
1276926206003,76.7376
1276926266003,76.8211
1276926326003,76.6031
1276926386003,76.6634
1276926446003,76.7205
1276926506003,76.7450
1276926566003,76.7138
1276926626003,76.9620
1276926686003,76.8661
1276926746003,76.8520
1276926806003,76.7482
1276926866003,76.6446
1276926926003,76.6671
1276926986003,76.7995
1276927046003,76.7479
1276927106003,76.6548
1276927166003,76.6831
1276927226012,76.6692
1276927286012,76.7552
1276927346012,76.7249
1276927406012,76.6338
1276927466012,76.5128
1276927526012,76.7141
1276927586012,76.6537
1276927646012,76.7545
1276927706012,76.7071
1276927766012,76.7985
1276927826012,76.7258
1276927886012,76.8386
1276927946012,76.8572
1276928006012,76.7628
1276928066012,76.7763
1276928126012,76.6593
1276928186012,76.7183
1276928246012,76.8624
1276928306012,76.8109
1276928366012,76.8717
1276928426012,76.8870
1276928486012,76.7860
1276928546012,76.7096
1276928606012,76.6723
1276928666012,76.6611
1276928726012,76.7623
1276928786012,76.7621
1276928846012,76.7404
1276928906012,76.6511
1276928966012,76.6541
1276929026012,76.8876
1276929086012,76.8768
1276929146012,76.7278
1276929206012,76.7203
1276929266012,76.9915
1276929326012,76.6626
1276929386012,76.7625
1276929446012,76.7574
1276929506012,76.5777
1276929566012,76.7800
1276929626012,76.8585
1276929686012,76.8256
1276929746012,76.7002
1276929806012,76.8395
1276929866012,76.8846
1276929926012,76.7402
1276929986012,76.7837
1276930046012,76.7284
1276930106012,76.7330
1276930166012,76.5343
1276930226012,76.6274
1276930286012,76.7207
1276930346012,76.6409
1276930406012,76.5687
1276930466012,76.7366
1276930526012,76.7766
1276930586012,76.8642
1276930646012,76.6737
1276930706012,76.7602
1276930766012,76.7159
1276930826020,76.8608
1276930886020,76.6694
1276930946020,76.6782
1276931006020,76.6355
1276931066020,76.9200
1276931126020,76.6541
1276931186020,76.6167
1276931246020,76.7777
1276931306020,76.9101
1276931366020,76.8692
1276931426020,76.6043
1276931486020,76.6696
1276931546020,76.7552
1276931606020,76.8412
1276931666020,76.8614
1276931726020,76.7808
1276931786020,76.7794
1276931846020,76.7188
1276931906020,76.6579
1276931966020,76.7286
1276932026020,76.4900
1276932086020,76.9121
1276932146020,76.8767
1276932206020,76.6530
1276932266020,76.8811
1276932326020,76.7555
1276932386020,76.8797
1276932446020,76.7564
1276932506020,76.7826
1276932566020,76.7234
1276932626020,76.6692
1276932686020,76.6941
1276932746020,76.9182
1276932806020,76.8923
1276932866020,76.7326
1276932926020,76.6897
1276932986020,76.8632
1276933046020,76.6596
1276933106020,77.0223
1276933166020,77.0490
1276933226020,76.9750
1276933286020,76.8550
1276933346020,76.7831
1276933406020,76.9804
1276933466020,76.9049
1276933526020,76.8224
1276933586020,76.8396
1276933646020,76.9778
1276933706020,77.1422
1276933766020,76.8987
1276933826020,76.9015
1276933886020,76.7578
1276933946020,76.9392
1276934006020,76.9667
1276934066020,76.8069
1276934126020,76.7386
1276934186020,77.2379
1276934246020,76.8051
1276934306020,76.9417
1276934366020,76.8123
1276934426028,76.9585
1276934486028,76.9285
1276934546028,76.8594
1276934606028,76.9268
1276934666028,76.9775
1276934726028,76.8842
1276934786028,76.9083
1276934846028,77.0899
1276934906028,77.1010
1276934966028,76.8692
1276935026028,77.0125
1276935086028,77.1132
1276935146028,77.1586
1276935206028,76.9263
1276935266028,77.1441
1276935326028,76.9854
1276935386028,77.2595
1276935446028,77.3075
1276935506028,77.0630
1276935566028,77.1573
1276935626028,76.9225
1276935686028,77.0755
1276935746028,76.9748
1276935806028,76.9338
1276935866028,77.0955
1276935926028,77.0190
1276935986028,77.1175
1276936046028,77.2299
1276936106028,77.0388
1276936166028,77.0730
1276936226028,77.0884
1276936286028,76.9020
1276936346028,76.8711
1276936406028,77.1087
1276936466028,77.0897
1276936526028,77.1969
1276936586028,77.1111
1276936646028,77.0375
1276936706028,77.1151
1276936766028,77.1047
1276936826028,77.1157
1276936886028,76.9760
1276936946028,76.9433
1276937006028,77.0086
1276937066028,77.0003
1276937126028,77.2196
1276937186028,77.0845
1276937246028,76.9896
1276937306028,77.1246
1276937366028,77.0471
1276937426028,76.8743
1276937486028,77.2922
1276937546028,77.1115
1276937606028,77.0259
1276937666028,77.2645
1276937726028,77.0300
1276937786028,77.1326
1276937846028,77.1686
1276937906028,77.2722
1276937966028,77.1206
1276938026036,77.0897
1276938086036,77.0046
1276938146036,77.2386
1276938206036,77.0338
1276938266036,77.1446
1276938326036,77.2223
1276938386036,77.3247
1276938446036,77.1995
1276938506036,77.1651
1276938566036,76.9622
1276938626036,77.2765
1276938686036,77.1132
1276938746036,77.2217
1276938806036,77.1753
1276938866036,77.0683
1276938926036,76.9879
1276938986036,77.1170
1276939046036,77.2059
1276939106036,77.2974
1276939166036,77.1676
1276939226036,77.1461
1276939286036,77.0570
1276939346036,77.1828
1276939406036,77.1060
1276939466036,77.2668
1276939526036,77.2597
1276939586036,77.0439
1276939646036,77.1928
1276939706036,77.1973
1276939766036,77.1691
1276939826036,77.1787
1276939886036,77.0238
1276939946036,77.2252
1276940006036,77.2265
1276940066036,77.2220
1276940126036,77.2804
1276940186036,77.1443
1276940246036,77.2367
1276940306036,77.1028
1276940366036,77.3476
1276940426036,77.3835
1276940486036,77.3398
1276940546036,77.3988
1276940606036,77.3591
1276940666036,77.2446
1276940726036,77.1105
1276940786036,77.3024
1276940846036,77.3220
1276940906036,77.3491
1276940966036,77.2736
1276941026036,77.2831
1276941086036,77.4397
1276941146036,77.2810
1276941206036,77.2604
1276941266036,77.3389
1276941326036,77.1845
1276941386036,77.3469
1276941446036,77.3190
1276941506036,77.3815
1276941566036,77.3130
1276941626045,77.2660
1276941686045,77.3285
1276941746045,77.3794
1276941806045,77.0296
1276941866045,77.5640
1276941926045,77.3688
1276941986045,77.4802
1276942046045,77.2745
1276942106045,77.4310
1276942166045,77.2417
1276942226045,77.7929
1276942286045,77.3280
1276942346045,77.5806
1276942406045,77.5338
1276942466045,77.5625
1276942526045,77.4477
1276942586045,77.6248
1276942646045,77.6336
1276942706045,77.4772
1276942766045,77.4727
1276942826045,77.4034
1276942886045,77.3284
1276942946045,77.4181
1276943006045,77.4560
1276943066045,78.0170
1276943126045,77.4475
1276943186045,77.4448
1276943246045,77.5463
1276943306045,77.6886
1276943366045,77.5651
1276943426045,77.6185
1276943486045,77.5621
1276943546045,77.5766
1276943606045,77.6675
1276943666045,77.4198
1276943726045,77.5973
1276943786045,77.4991
1276943846045,77.5186
1276943906045,77.4866
1276943966045,77.6069
1276944026045,77.5832
1276944086045,77.3623
1276944146045,77.5349
1276944206045,77.4916
1276944266045,77.3464
1276944326045,77.4676
1276944386045,77.8424
1276944446045,77.5988
1276944506045,77.7086
1276944566045,77.6127
1276944626045,77.5610
1276944686045,77.5884
1276944746045,77.6776
1276944806045,77.4772
1276944866045,77.3730
1276944926045,77.5101
1276944986045,77.6889
1276945046045,77.5875
1276945106045,77.5197
1276945166045,77.5825
1276945226053,77.4418
1276945286053,77.2236
1276945826053,77.4420
1276945886053,75.2923
1276945946053,77.4042
1276946006053,77.5257
1276946066053,77.6272
1276946126053,77.6296
1276946186053,77.5489
1276946246053,77.4269
1276946306053,77.5308
1276946366053,77.6371
1276946426053,77.4972
1276946486053,77.5384
1276946546053,77.4000
1276946606053,77.4438
1276946666053,77.5324
1276946726053,77.5204
1276946786053,77.5979
1276946846053,77.2860
1276946906053,77.6966
1276946966053,77.6007
1276947026053,77.5394
1276947086053,77.4478
1276947146053,77.6694
1276947206053,77.5424
1276947266053,77.6353
1276947326053,77.5025
1276947386053,77.6308
1276947446053,77.3807
1276947506053,77.4281
1276947566053,77.4916
1276947626053,77.5921
1276947686053,77.5615
1276947746053,77.6508
1276947806053,77.5162
1276947866053,77.5814
1276947926053,77.5204
1276947986053,77.8211
1276948046053,77.5086
1276948106053,77.6695
1276948166053,77.5819
1276948226053,77.5500
1276948286053,77.4180
1276948346053,77.5747
1276948406053,77.4012
1276948466053,77.5275
1276948526053,77.5830
1276948586053,77.6519
1276948646053,77.5054
1276948706053,77.4678
1276948766053,77.5335
1276948826061,77.5040
1276948886061,77.5648
1276948946061,77.6697
1276949006061,77.7306
1276949066061,77.6666
1276949126061,77.5366
1276949186061,77.7085
1276949246061,77.7380
1276949306061,77.5427
1276949366061,77.7669
1276949426061,77.5568
1276949486061,77.7341
1276949546061,77.4928
1276949606061,77.8305
1276949666061,77.6110
1276949726061,77.6647
1276949786061,77.7784
1276949846061,77.6896
1276949906061,77.6741
1276949966061,77.6908
1276950026061,77.6944
1276950086061,77.6379
1276950146061,77.6119
1276950206061,77.6622
1276950266061,77.6182
1276950326061,77.7484
1276950386061,77.7031
1276950446061,77.6071
1276950506061,77.6972
1276950566061,77.7197
1276950626061,77.8123
1276950686061,77.6756
1276950746061,77.5857
1276950806061,77.6472
1276950866061,77.7165
1276950926061,77.5779
1276950986061,77.6138
1276951046061,77.7419
1276951106061,77.7277
1276951166061,77.7928
1276951226061,77.6928
1276951286061,77.6682
1276951346061,77.6843
1276951406061,77.6543
1276951466061,77.8464
1276951526061,77.5219
1276951586061,78.2207
1276951646061,77.7925
1276951706061,77.7077
1276951766061,77.4990
1276951826061,77.4396
1276951886061,77.7951
1276951946061,77.5835
1276952006061,77.7776
1276952066061,77.5565
1276952126061,77.5734
1276952186061,77.7389
1276952246061,77.4812
1276952306061,77.7481
1276952366061,77.5726
1276952426069,77.5365
1276952486069,77.7044
1276952546069,77.4714
1276952606069,77.6260
1276952666069,77.6374
1276952726069,77.6690
1276952786069,77.7684
1276952846069,77.5464
1276952906069,77.6399
1276952966069,77.7145
1276953026069,77.5505
1276953086069,77.6439
1276953146069,77.4971
1276953206069,77.6210
1276953266069,77.5731
1276953326069,77.5561
1276953386069,77.6568
1276953446069,77.6456
1276953506069,77.6255
1276953566069,77.5934
1276953626069,77.6079
1276953686069,77.8879
1276953746069,77.5551
1276953806069,77.7531
1276953866069,77.7180
1276953926069,77.5736
1276953986069,77.6588
1276954046069,77.7096
1276954106069,77.9182
1276954166069,77.8165
1276954226069,77.7133
1276954286069,77.6688
1276954346069,77.6759
1276954406069,77.8795
1276954466069,77.7166
1276954526069,77.7611
1276954586069,77.7185
1276954646069,77.9144
1276954706069,77.8043
1276954766069,77.6909
1276954826069,77.8330
1276954886069,77.8734
1276954946069,77.8064
1276955006069,77.8767
1276955066069,77.6221
1276955126069,77.7857
1276955186069,77.7581
1276955246069,77.6119
1276955306069,77.8585
1276955366069,77.8376
1276955426069,77.7847
1276955486069,77.7648
1276955546069,77.7833
1276955606069,77.8025
1276955666069,78.0154
1276955726069,77.7231
1276955786069,77.7232
1276955846069,77.5930
1276955906069,77.7361
1276955966069,77.9718
1276956026077,78.0369
1276956086077,77.6488
1276956146077,77.9910
1276956206077,77.5556
1276956266077,77.8577
1276956326077,77.9736
1276956386077,77.9864
1276956446077,77.8736
1276956506077,77.8623
1276956566077,77.9916
1276956626077,77.9341
1276956686077,78.0886
1276956746077,77.9484
1276956806077,77.9025
1276956866077,77.8106
1276956926077,77.8880
1276956986077,77.8729
1276957046077,77.9056
1276957106077,77.9948
1276957166077,77.8714
1276957226077,77.8226
1276957286077,77.8706
1276957346077,78.0239
1276957406077,77.7453
1276957466077,77.9252
1276957526077,77.7430
1276957586077,77.8268
1276957646077,77.7986
1276957706077,77.8198
1276957766077,77.8522
1276957826077,77.9172
1276957886077,77.9250
1276957946077,77.7845
1276958006077,77.7800
1276958066077,77.9837
1276958126077,77.7527
1276958186077,77.7406
1276958246077,77.8844
1276958306077,77.7085
1276958366077,77.7697
1276958426077,77.7477
1276958486077,77.6870
1276958546077,77.7500
1276958606077,77.6882
1276958666077,77.7022
1276958726077,77.7225
1276958786077,77.9584
1276958846077,77.8484
1276958906077,77.6220
1276958966077,77.5980
1276959026077,77.5650
1276959086077,77.6838
1276959146077,77.8365
1276959206077,77.7227
1276959266077,77.7773
1276959326077,77.7499
1276959386077,77.7216
1276959446077,77.7701
1276959506077,77.8036
1276959566077,77.6335
1276959626106,77.7032
1276959686106,77.7084
1276959746106,77.8771
1276959806106,77.7414
1276959866106,77.7057
1276959926106,77.6677
1276959986106,77.6415
1276960046106,77.7205
1276960106106,77.5032
1276960166106,77.6544
1276960226106,77.7699
1276960286106,77.5624
1276960346106,77.7915
1276960406106,77.5629
1276960466106,77.7823
1276960526106,77.6743
1276960586106,77.6824
1276960646106,77.7982
1276960706106,77.6082
1276960766106,77.6670
1276960826106,77.6501
1276960886106,77.7305
1276960946106,77.5852
1276961006106,77.7231
1276961066106,77.5750
1276961126106,77.7412
1276961186106,77.6777
1276961246106,77.7164
1276961306106,77.8194
1276961366106,77.4773
1276961426106,77.8003
1276961486106,77.7315
1276961546106,77.4971
1276961606106,77.7867
1276961666106,77.8446
1276961726106,77.5931
1276961786106,77.5084
1276961846106,77.3583
1276961906106,77.7984
1276961966106,77.6513
1276962026106,77.6185
1276962086106,77.6400
1276962146106,77.5372
1276962206106,77.4419
1276962266106,77.5188
1276962326106,77.5222
1276962386106,77.3489
1276962446106,77.5517
1276962506106,77.4038
1276962566106,77.7597
1276962626106,77.6066
1276962686106,77.6036
1276962746106,77.4473
1276962806106,77.4126
1276962866106,77.4228
1276962926106,77.4850
1276962986106,77.4407
1276963046106,77.6232
1276963106106,77.5589
1276963166106,77.4697
1276963226115,77.6681
1276963286115,77.3302
1276963346115,77.4665
1276963406115,77.5626
1276963466115,77.5249
1276963526115,77.3591
1276963586115,77.5027
1276963646115,77.5195
1276963706115,77.3356
1276963766115,77.4209
1276963826115,77.5564
1276963886115,77.4411
1276963946115,77.5362
1276964006115,77.5480
1276964066115,77.4989
1276964126115,77.5363
1276964186115,77.3614
1276964246115,77.3041
1276964306115,77.5121
1276964366115,77.3790
1276964426115,77.4873
1276964486115,77.5447
1276964546115,77.5043
1276964606115,77.5043
1276964666115,77.4043
1276964726115,77.5064
1276964786115,77.3227
1276964846115,77.1944
1276964906115,77.4428
1276964966115,77.4815
1276965026115,77.5871
1276965086115,77.3808
1276965146115,77.4138
1276965206115,77.5621
1276965266115,77.4084
1276965326115,77.5091
1276965386115,77.4286
1276965446115,77.3226
1276965506115,77.3825
1276965566115,77.5003
1276965626115,77.4859
1276965686115,77.4664
1276965746115,77.3689
1276965806115,77.4862
1276965866115,77.5206
1276965926115,77.2205
1276965986115,77.5287
1276966046115,77.3464
1276966106115,77.3113
1276966166115,77.3263
1276966226115,77.3795
1276966286115,77.4256
1276966346115,77.3529
1276966406115,77.2361
1276966466115,77.5205
1276966526115,77.5715
1276966586115,77.4486
1276966646115,77.4206
1276966706115,77.3450
1276966766115,77.5521
1276966826124,77.4673
1276966886124,77.3318
1276966946124,77.2556
1276967006124,77.3169
1276967066124,77.4166
1276967126124,77.4148
1276967186124,77.2247
1276967246124,77.5888
1276967306124,77.3573
1276967366124,77.2568
1276967426124,77.3928
1276967486124,77.2966
1276967546124,77.4464
1276967606124,77.3459
1276967666124,77.4272
1276967726124,77.4212
1276967786124,77.5097
1276967846124,77.3595
1276967906124,77.2837
1276967966124,77.2978
1276968026124,77.2978
1276968086124,77.4936
1276968146124,77.3819
1276968206124,77.3189
1276968266124,77.3105
1276968326124,77.3605
1276968386124,77.3760
1276968446124,77.4637
1276968506124,77.3950
1276968566124,77.5804
1276968626124,77.4715
1276968686124,77.4014
1276968746124,77.5285
1276968806124,77.7528
1276968866124,77.6443
1276968926124,77.4764
1276968986124,77.5488
1276969046124,77.4843
1276969106124,77.6188
1276969166124,77.5369
1276969226124,77.7005
1276969286124,77.5854
1276969346124,77.4440
1276969406124,77.4424
1276969466124,77.5977
1276969526124,77.6905
1276969586124,77.6564
1276969646124,77.5786
1276969706124,77.6839
1276969766124,77.5698
1276969826124,77.5560
1276969886124,77.6672
1276969946124,77.6338
1276970006124,77.5368
1276970066124,77.6439
1276970126124,77.6442
1276970186124,77.3202
1276970246124,77.5875
1276970306124,77.6063
1276970366124,77.5167
1276970426133,77.6111
1276970486133,77.6493
1276970546133,77.7561
1276970606133,77.4975
1276970666133,77.5307
1276970726133,77.6861
1276970786133,77.5948
1276970846133,77.5671
1276970906133,77.5624
1276970966133,77.7191
1276971026133,77.6310
1276971086133,77.7272
1276971146133,77.8002
1276971206133,77.6771
1276971266133,77.7085
1276971326133,77.6907
1276971386133,77.6981
1276971446133,77.5039